User: anonymous   Login
Location: Unspecified
(0.0000°N, 0.0000°E)
Time: 00:08:09
(UTC+00:00)
Language:

STARLINK-34278 - Orbit

View from above orbital plane
View from above orbital plane
View from above satellite
View from above satellite

Ground track
Ground track

The orbit is defined by the following mean orbital elements,

1 64391U          26145.34310912 +.00000000 +00000-0 +61365-3 0 00001
2 64391  43.0008 106.5842 0001959 253.3673 106.6963 15.27589103    01
Epoch (UTC): 25 May 2026 08:14:04
Eccentricity: 0.0001959
inclination: 43.0008°
perigee height: 482 km
apogee height: 484 km
right ascension of ascending node: 106.5842°
argument of perigee: 253.3673°
revolutions per day: 15.27589103
mean anomaly at epoch: 106.6963°

The dashed part of the orbit path shows where the satellite is in the earth's shadow,  

DLR